Regional Weather Roundup
Issued by NWS

Home | Current Version | Previous Version | Text Only | Print | Product List | Glossary On
Versions: 1 2 3 4 5 6 7 8 9 10 11 12 13 14 15 16 17 18 19 20 21 22 23 24 25 26 27 28 29 30 31 32 33 34 35 36 37 38 39 40 41 42 43 44 45 46 47 48 49 50
000
ASHW40 PHFO 232143
RWRHI

WEATHER ROUNDUP FOR HAWAII
NATIONAL WEATHER SERVICE HONOLULU HI
1100 AM HST FRI JUN 23 2017

THIS IS AN AUTOMATED REPORT THAT HAS NOT BEEN QUALITY CONTROLLED.

NOTE..."FAIR" INDICATES FEW OR NO CLOUDS BELOW 12,000 FEET WITH NO
SIGNIFICANT WEATHER AND/OR OBSTRUCTIONS TO VISIBILITY.

* - THESE SITES REPORT LIMITED FIELDS

HIZ001>004-232200-
KAUAI-NIIHAU-

CITY           SKY/WX    TMP DP  RH WIND       PRES   REMARKS
LIHUE APT      MOSUNNY   83  69  62 E14       30.00S
PORT ALLEN*    NOT AVBL
POIPU*           N/A     84 N/A N/A NE9G17      N/A
PRINCEVILLE*     N/A     79 N/A N/A E8G14       N/A
KOKOLE POINT*  NOT AVBL
MOLOAA DAIRY*    N/A     82  72  69 E3G12       N/A
WAIMEA HTS*      N/A     86  66  51 W6G15       N/A
PUU OPAE*      NOT AVBL
PUU LUA*       NOT AVBL
MAKAHA RIDGE*    N/A     81  66  61 NW3         N/A
$$

HIZ005>011-232200-
OAHU-

CITY           SKY/WX    TMP DP  RH WIND       PRES   REMARKS
HONOLULU       MOSUNNY   82  65  56 NE14G24   29.97S
KALAELOA       CLOUDY    84  67  56 VRB7      29.98F
KANEOHE MCB    MOSUNNY   82  72  69 E13       29.96
WHEELER FIELD  PTSUNNY   80  67  64 E9        29.98S
BELLOWS*         N/A    N/A N/A N/A NE14G20     N/A
KAHUKU*          N/A    N/A N/A N/A NE8G14      N/A
WHEELER*         N/A    N/A N/A N/A E8G15       N/A
WAIANAE HARBOR   N/A    N/A N/A N/A E6G15       N/A
DILLINGHAM*      N/A     88  70  55 SW6G16      N/A  HX  92
KAHUKU TRN*      N/A     82  70  65 W8G18       N/A
KAWAILOA*        N/A     77  66  69 E12G18      N/A
KII*             N/A     82  72  69 E13         N/A
MAKUA RANGE*     N/A     84  64  51 SW12G22     N/A
OAHU FOREST NW   N/A     73  64  73 E15G26      N/A
SCHOFIELD BRK*   N/A     79  64  61 MISG        N/A
SCHOFIELD S*   NOT AVBL
WAIANAE VLY*   NOT AVBL
KUAOKALA*        N/A     77  68  73 VRB16G29    N/A
HONOULIUULI*   NOT AVBL
MOKUOLOE IS*   NOT AVBL
PALEHUA*         N/A     75  64  69 NE6G15      N/A
WAIAWA PHB*    NOT AVBL
$$

HIZ012>013-232200-
MOLOKAI-

CITY           SKY/WX    TMP DP  RH WIND       PRES   REMARKS
MOLOKAI AIRPT  PTSUNNY   83  69  62 NE10G20   29.98F
KALAUPAPA      NOT AVBL
MAKAPULAPAI*     N/A     82  72  69 E15         N/A
MOLOKAI 1*     NOT AVBL
PUU ALII*        N/A     62  62  98 N2G9        N/A
$$

HIZ016-232200-
KAHOOLAWE-

CITY           SKY/WX    TMP DP  RH WIND       PRES   REMARKS
KAHOOLAWE*     NOT AVBL
HAKIOAWA*        N/A     78  68  70 MISG      30.39
HONOKANAIA*      N/A     82  68  62 E16G26    29.91
KANELOA*         N/A     77  70  78 E18G26    30.04R
KEALIALALO*    NOT AVBL
LUA MAKIKA*    NOT AVBL
$$

HIZ014>015-232200-
LANAI-

CITY           SKY/WX    TMP DP  RH WIND       PRES   REMARKS
LANAI CITY     CLOUDY    74  66  76 W6        30.03S
LANAI 1*       NOT AVBL
$$

HIZ017>028-232200-
MAUI-

CITY           SKY/WX    TMP DP  RH WIND       PRES   REMARKS
KAHULUI        PTSUNNY   83  67  58 E16G26    29.96S
KAPALUA-W MAUI MOSUNNY   82  63  51 NE16      29.98
HANA AIRPORT   PTSUNNY   81  72  74 E6        30.01S
HANA*            N/A     79 N/A N/A SE5G10      N/A
HALEAKALA SUMM   N/A     55  45  67 E12G29      N/A
MAALAEA BAY*     N/A     86 N/A N/A N18G26      N/A
HALEAKALA*     NOT AVBL
KAUPO GAP*     NOT AVBL
KULA 1*          N/A     56  55  96 N3          N/A
$$

HIZ023>026-232200-
BIG ISLAND OF HAWAII COAST AND LOWER SLOPES-

CITY           SKY/WX    TMP DP  RH WIND       PRES   REMARKS
KAILUA KONA    MOSUNNY   84  69  60 SW12      29.94S
HILO           PTSUNNY   77  70  78 S8        29.98S
HONOKAA*         N/A     81 N/A N/A VRB1        N/A
KAWAIHAE MWT*    N/A     82 N/A N/A W10         N/A
KAWAIHAE*        N/A     79 N/A N/A W9        29.94S
SOUTH POINT*     N/A     79 N/A N/A N14G21      N/A
UPOLU AIRPORT* NOT AVBL
KAMUELA*       PTCLDY    81  63  54 NE16      30.06S
HAKALAU*         N/A     61  58  89 SE5G15      N/A
KALOKO-HONOKO*   N/A     84  70  61 W8        29.94S
PALI 2*          N/A     70  64  83 NW15G22     N/A
KEALAKOMO*       N/A     82  66  57 E13G23      N/A
KAUPULEHU*       N/A     81  66  61 W14G21      N/A
KAPAPALA*        N/A     75  68  78 SE5G10      N/A
LOWER KAHUKU*    N/A     64  63  94 SE1G7       N/A
PUHE CS*         N/A     84  66  54 W5G12       N/A
PUHO CS*         N/A     86  69  55 W3          N/A  HX  90
PTA KEAMUKU*   NOT AVBL
WAIKOLOA*        N/A     81  64  57 W9G15       N/A
$$

HIZ027>028-232200-
BIG ISLAND OF HAWAII INTERIOR AND SUMMMITS-

CITY           SKY/WX    TMP DP  RH WIND       PRES   REMARKS
BRADSHAW FIELD PTSUNNY   66  55  68 W9        30.27F
MK VISITOR CEN   N/A     54  46  76 SE6         N/A
MAUNA KEA*       N/A     50  21  32 NE14        N/A
MAUNA LOA*       N/A     54  37  54 MISG        N/A
MAUNA LOA 1*   NOT AVBL
PTA KIPUKA*      N/A     48  34  57 N5G14       N/A
PTA RANGE 17*    N/A     70  57  64 NW10G17     N/A
PTA WEST*        N/A     54  43  66 NW12G21     N/A
NENE CABIN*      N/A     57  55  94 E8G16       N/A
AHUMOA*          N/A     61  58  90 NW7G13      N/A
PTA PORTABLE*  NOT AVBL
PUU MALI*        N/A     63  57  82 NE16G29     N/A
$$

HIC003-232200-
NORTHWEST ISLANDS-

CITY           SKY/WX    TMP DP  RH WIND       PRES   REMARKS
MIDWAY ISLAND  PTSUNNY   81  68  65 E17       30.13S
MIDWAY NOS*      N/A     77 N/A N/A MISG      30.11S
FRENCH FRIGATE NOT AVBL
$$

PHZ110>124-180-232200-
BUOY REPORTS

STATION/POSITION TIME  TEMP    WIND        PRES    WAVE   SWELL
                       AIR SEA DIR/SP/G            HT/PER HT/DIR
                 (UTC) (F)     (DEG/KT/KT) (MB)    (FT/S) (FT/D)
BUOY 51001       2120   79 80   80/ 12/ 14 1016.8
BUOY 51101       2050   79 80   70/ 12/ 14 1017.2R   5/15   5/150
BUOY 51100       NOT AVBL
BUOY 51002       2120   78 79   90/ 12/ 16 1013.3
BUOY 51003       2050   80 81   50/ 12/ 14 1013.8S   5/15   5/130
BUOY 51004       2050      79   90/ 12/ 14 1014.1F   6/15   5/150
BARBERS PT BUOY  NOT AVBL
WAIMEA BAY BUOY  2102      79                N/A     4/ 8
KAILUA BAY BUOY  2104      80                N/A     5/ 8   2/130
LANAI BUOY       NOT AVBL
BARBERS PT 2     NOT AVBL
PAUWELA MAUI     2109      79                N/A     5/ 8   2/ 60
HILO             2127      79                N/A     5/ 9   2/120
KANEOHE BAY BUOY 2125      80                N/A     5/ 8   2/ 60
HANALEI KAUAI    2122      80                N/A     4/ 8   2/100
KAHULUI HARBOR   2106   79 80   60/ 16/ 21 1014.8
HONOLULU HARBOR  2106   82 80   80/  4/  9 1015.5
KILO NALU        NOT AVBL
HILO HARBOR      2106   78 79  270/  3/  6 1014.9
MOKUOLOE         2036   80 82   80/ 10/ 12 1015.4R
NAWILIWILI       2118   79      80/ 12/ 15 1015.4
WHOTS BUOY       NOT AVBL
BUOY 51028       NOT AVBL
$$

......................KEY........................................
  SKY/WX - SKY CONDITIONS/PRESENT WEATHER
  TMP    - TEMPERATURE IN FAHRENHEIT
  DWPT   - DEWPOINT IN FAHRENHEIT
  RH     - RELATIVE HUMIDITY IN PERCENT
  WIND   - DIRECTION AND SPEED /MPH FOR ISLANDS...KTS FOR BUOYS/
  PRES   - MEAN SEA LEVEL PRESSURE IN INCHES OF HG
  VSB    - VISIBILITY IN MILES
  HX     - HEAT INDEX
  WCI    - WIND CHILL INDEX
  VRB    - VARIABLE WIND DIRECTION
  N/A    - NOT AVAILABLE



USA.gov is the U.S. government's official web portal to all federal, state and local government web resources and services.